Regional Weather Roundup
Issued by NWS

Home | Current Version | Previous Version | Graphics & Text | Print | Product List | Glossary On
Versions: 1 2 3 4 5 6 7 8 9 10 11 12 13 14 15 16 17 18 19 20 21 22 23 24 25 26 27 28
000
ASUS45 KCYS 251810
RWRWY

WYOMING REGIONAL WEATHER ROUNDUP
NATIONAL WEATHER SERVICE CHEYENNE WY
1200 PM MDT WED APR 25 2018

NOTE:  "FAIR" INDICATES FEW OR NO CLOUDS BELOW 12,000 FEET
WITH NO SIGNIFICANT WEATHER AND/OR OBSTRUCTIONS TO VISIBILITY.

WYZ001-251900-
YELLOWSTONE NATIONAL PARK

CITY           SKY/WX    TMP DP  RH WIND       PRES   REMARKS
LK YELLOWSTONE   N/A     39  20  46 VRB3      30.30F
6HR MIN TEMP:  12; 6HR MAX TEMP:  39;

W YELLOWSTONE  NOT AVBL

$$
WYZ002>013-054>058-071-098>099-251900-
NORTHERN WYOMING

CITY           SKY/WX    TMP DP  RH WIND       PRES   REMARKS
JACKSON        FAIR      53  20  27 S12G22    30.27F
CODY           FAIR      59   9  13 SE17      30.10F
GREYBULL       FAIR      56  26  31 SE13      30.12F
6HR MIN TEMP:  31; 6HR MAX TEMP:  56;

WORLAND        FAIR      57  26  30 VRB6      30.12F
6HR MIN TEMP:  23; 6HR MAX TEMP:  57;

SHERIDAN       FAIR      62  29  28 NE5       30.03F
6HR MIN TEMP:  21; 6HR MAX TEMP:  62;

BUFFALO        FAIR      65  17  15 SE10      30.07F
6HR MIN TEMP:  32; 6HR MAX TEMP:  66;

GILLETTE       FAIR      64  26  23 SW18      30.06F
6HR MIN TEMP:  30; 6HR MAX TEMP:  64;

HULETT         FAIR      59  19  21 SW20      30.08F
NEWCASTLE      FAIR      52  23  32 SE12G20   30.16F

$$
WYZ014>020-022>026-101>103-251900-
CENTRAL WYOMING

CITY           SKY/WX    TMP DP  RH WIND       PRES   REMARKS
BIG PINEY      FAIR      48  20  32 SW8       30.31F
6HR MIN TEMP:  14; 6HR MAX TEMP:  48;

PINEDALE       FAIR      48  21  34 W5        30.30F
DUBOIS         FAIR      59   0   9 SW20      30.18F
LANDER         FAIR      53  20  27 CALM      30.17F
6HR MIN TEMP:  23; 6HR MAX TEMP:  54;

RIVERTON       FAIR      51  24  34 VRB5      30.19F
6HR MIN TEMP:  22; 6HR MAX TEMP:  51;

CASPER         FAIR      57  24  28 SW25G31   30.19F
6HR MIN TEMP:  31; 6HR MAX TEMP:  57;

DOUGLAS        FAIR      57  24  28 SE6       30.16F
6HR MIN TEMP:  14; 6HR MAX TEMP:  57;


$$
WYZ021-027>030-104>119-251900-
SOUTHERN WYOMING

CITY           SKY/WX    TMP DP  RH WIND       PRES   REMARKS
EVANSTON       FAIR      53  22  29 VRB7      30.30F
6HR MIN TEMP:  26; 6HR MAX TEMP:  53;

KEMMERER       FAIR      48  18  29 SW6       30.32F
FORT BRIDGER   FAIR      49  22  33 N3        30.34F
ROCK SPRINGS   FAIR      53  14  21 CALM      30.29F
6HR MIN TEMP:  21; 6HR MAX TEMP:  53;

DIXON          FAIR      51  19  28 CALM      30.34F
RAWLINS        FAIR      52  17  25 SW17G25   30.30F
6HR MIN TEMP:  14; 6HR MAX TEMP:  52;

SARATOGA       FAIR      50  18  27 CALM      30.31F
LARAMIE        FAIR      49  13  23 VRB3      30.26F
6HR MIN TEMP:  17; 6HR MAX TEMP:  50;

CHEYENNE       FAIR      54  26  34 S8        30.24F
6HR MIN TEMP:  22; 6HR MAX TEMP:  54;

TORRINGTON     FAIR      56  30  37 S8        30.19F
6HR MIN TEMP:  23; 6HR MAX TEMP:  56;

PINE BLUFFS    FAIR      55  28  35 MISG      30.23F

$$




USA.gov is the U.S. government's official web portal to all federal, state and local government web resources and services.